TAP68JP LPMA-LPPT

Flight info

Callsign TAP68JP
Flight time 1h 14m
Altitude 36000
Route DEGUN DCT NARTA DCT ESUTI
Aircraft A320/M-SDE3FGHIJ1RWXYZ/LB1

Departure

Time 2026-05-04 00:21
Airport Cristiano Ronaldo International Airport (LPMA)

Arrival

Time 2026-05-04 01:35
Airport Lisbon Humberto Delgado Airport (LPPT)
Time Latitude Longitude Altitude Speed Heading
2026-05-03 23:57 32.69413 -16.77591 174 ft 0 kts 138°
2026-05-04 00:15 32.69421 -16.77600 174 ft 2 kts 137°
2026-05-04 00:15 32.69433 -16.77613 173 ft 2 kts 139°
2026-05-04 00:15 32.69446 -16.77625 172 ft 2 kts 143°
2026-05-04 00:16 32.69460 -16.77637 172 ft 2 kts 186°
2026-05-04 00:16 32.69470 -16.77632 171 ft 1 kts 229°
2026-05-04 00:18 32.69469 -16.77633 171 ft 1 kts 228°
2026-05-04 00:18 32.69416 -16.77703 169 ft 19 kts 226°
2026-05-04 00:18 32.69316 -16.77822 168 ft 21 kts 223°
2026-05-04 00:18 32.69291 -16.77978 162 ft 22 kts 267°
2026-05-04 00:19 32.69208 -16.78123 160 ft 23 kts 226°
2026-05-04 00:19 32.69091 -16.78259 160 ft 23 kts 226°
2026-05-04 00:19 32.68978 -16.78384 157 ft 17 kts 201°
2026-05-04 00:19 32.68886 -16.78433 155 ft 11 kts 248°
2026-05-04 00:20 32.68919 -16.78458 156 ft 1 kts 47°
2026-05-04 00:20 32.68990 -16.78370 157 ft 49 kts 43°
2026-05-04 00:20 32.69413 -16.77881 164 ft 117 kts 45°
2026-05-04 00:21 32.70115 -16.77054 297 ft 154 kts 44°
2026-05-04 00:21 32.70835 -16.76188 984 ft 146 kts 53°
2026-05-04 00:21 32.71164 -16.75025 1433 ft 154 kts 90°
2026-05-04 00:21 32.70899 -16.73719 1585 ft 181 kts 114°
2026-05-04 00:22 32.70396 -16.72246 1859 ft 204 kts 112°
2026-05-04 00:22 32.69848 -16.70572 2157 ft 230 kts 112°
2026-05-04 00:22 32.69251 -16.68705 2612 ft 254 kts 111°
2026-05-04 00:22 32.68610 -16.66677 3321 ft 266 kts 111°
2026-05-04 00:23 32.67966 -16.64624 4181 ft 272 kts 111°
2026-05-04 00:23 32.67303 -16.62503 5066 ft 277 kts 111°
2026-05-04 00:23 32.66628 -16.60341 5939 ft 281 kts 111°
2026-05-04 00:23 32.65994 -16.58124 6788 ft 287 kts 102°
2026-05-04 00:24 32.65920 -16.55749 7581 ft 291 kts 79°
2026-05-04 00:24 32.66643 -16.53507 8395 ft 294 kts 54°
2026-05-04 00:24 32.68013 -16.51747 9207 ft 296 kts 41°
2026-05-04 00:24 32.69529 -16.50075 10058 ft 299 kts 40°
2026-05-04 00:25 32.71118 -16.48334 10492 ft 318 kts 40°
2026-05-04 00:25 32.72784 -16.46512 10744 ft 340 kts 40°
2026-05-04 00:25 32.74533 -16.44590 11279 ft 350 kts 41°
2026-05-04 00:25 32.76331 -16.42602 11975 ft 356 kts 41°
2026-05-04 00:26 32.78158 -16.40574 12692 ft 361 kts 41°
2026-05-04 00:26 32.79852 -16.38686 13349 ft 365 kts 41°
2026-05-04 00:26 32.81788 -16.36529 14062 ft 370 kts 40°
2026-05-04 00:26 32.83682 -16.34424 14676 ft 374 kts 40°
2026-05-04 00:27 32.85599 -16.32291 15286 ft 378 kts 40°
2026-05-04 00:27 32.87512 -16.30165 15890 ft 383 kts 40°
2026-05-04 00:27 32.89467 -16.27989 16494 ft 387 kts 40°
2026-05-04 00:27 32.91447 -16.25782 17086 ft 391 kts 40°
2026-05-04 00:28 32.93440 -16.23555 17696 ft 396 kts 40°
2026-05-04 00:28 32.95458 -16.21300 18287 ft 400 kts 40°
2026-05-04 00:28 32.97501 -16.19018 18810 ft 404 kts 40°
2026-05-04 00:28 32.99561 -16.16714 19330 ft 408 kts 40°
2026-05-04 00:29 33.01643 -16.14384 19847 ft 412 kts 40°
2026-05-04 00:29 33.03743 -16.12033 20365 ft 416 kts 40°
2026-05-04 00:29 33.05863 -16.09657 20881 ft 420 kts 40°
2026-05-04 00:29 33.07976 -16.07289 21394 ft 424 kts 39°
2026-05-04 00:30 33.10160 -16.04843 21915 ft 427 kts 39°
2026-05-04 00:30 33.12340 -16.02399 22423 ft 431 kts 39°
2026-05-04 00:30 33.14536 -15.99934 22922 ft 435 kts 39°
2026-05-04 00:30 33.16721 -15.97480 23406 ft 439 kts 39°
2026-05-04 00:31 33.18961 -15.94961 23859 ft 442 kts 39°
2026-05-04 00:31 33.21211 -15.92430 24251 ft 446 kts 39°
2026-05-04 00:31 33.23475 -15.89878 24640 ft 449 kts 39°
2026-05-04 00:31 33.25754 -15.87309 25018 ft 452 kts 39°
2026-05-04 00:32 33.28050 -15.84719 25384 ft 455 kts 39°
2026-05-04 00:32 33.30369 -15.82101 25753 ft 458 kts 39°
2026-05-04 00:32 33.32670 -15.79501 26110 ft 461 kts 39°
2026-05-04 00:32 33.35012 -15.76853 26458 ft 464 kts 39°
2026-05-04 00:33 33.37373 -15.74176 26805 ft 467 kts 39°
2026-05-04 00:33 33.42088 -15.68825 27486 ft 472 kts 39°
2026-05-04 00:33 33.44483 -15.66109 27821 ft 475 kts 39°
2026-05-04 00:34 33.46894 -15.63378 28152 ft 478 kts 39°
2026-05-04 00:34 33.49321 -15.60624 28474 ft 480 kts 39°
2026-05-04 00:34 33.51756 -15.57858 28796 ft 483 kts 39°
2026-05-04 00:34 33.54207 -15.55071 29108 ft 486 kts 39°
2026-05-04 00:35 33.56641 -15.52296 29396 ft 488 kts 39°
2026-05-04 00:35 33.59109 -15.49481 29685 ft 491 kts 39°
2026-05-04 00:35 33.61602 -15.46639 29976 ft 493 kts 39°
2026-05-04 00:35 33.64094 -15.43800 30247 ft 495 kts 39°
2026-05-04 00:36 33.66600 -15.40939 30477 ft 498 kts 39°
2026-05-04 00:36 33.69108 -15.38071 30711 ft 500 kts 39°
2026-05-04 00:36 33.71625 -15.35187 30934 ft 501 kts 39°
2026-05-04 00:36 33.74121 -15.32320 31152 ft 503 kts 39°
2026-05-04 00:37 33.76653 -15.29411 31393 ft 504 kts 39°
2026-05-04 00:37 33.79195 -15.26493 31708 ft 503 kts 39°
2026-05-04 00:37 33.81730 -15.23584 32008 ft 503 kts 39°
2026-05-04 00:37 33.84256 -15.20683 32315 ft 502 kts 39°
2026-05-04 00:38 33.86786 -15.17775 32616 ft 502 kts 39°
2026-05-04 00:38 33.89288 -15.14895 32910 ft 502 kts 39°
2026-05-04 00:38 33.91807 -15.11988 33204 ft 501 kts 39°
2026-05-04 00:38 33.94324 -15.09080 33505 ft 501 kts 39°
2026-05-04 00:39 33.96846 -15.06167 33811 ft 501 kts 39°
2026-05-04 00:39 33.99366 -15.03257 34125 ft 500 kts 39°
2026-05-04 00:39 34.01880 -15.00351 34398 ft 499 kts 39°
2026-05-04 00:39 34.04384 -14.97455 34669 ft 499 kts 39°
2026-05-04 00:40 34.06852 -14.94596 34938 ft 498 kts 39°
2026-05-04 00:40 34.09382 -14.91665 35201 ft 497 kts 39°
2026-05-04 00:40 34.11843 -14.88812 35452 ft 496 kts 39°
2026-05-04 00:40 34.14340 -14.85914 35706 ft 495 kts 39°
2026-05-04 00:41 34.16828 -14.83021 35952 ft 494 kts 39°
2026-05-04 00:41 34.19276 -14.80171 36116 ft 494 kts 39°
2026-05-04 00:41 34.21744 -14.77292 36162 ft 492 kts 39°
2026-05-04 00:42 34.26655 -14.71558 36155 ft 490 kts 39°
2026-05-04 00:42 34.31573 -14.65812 36158 ft 489 kts 39°
2026-05-04 00:43 34.36453 -14.60108 36161 ft 489 kts 39°
2026-05-04 00:43 34.41352 -14.54363 36163 ft 489 kts 39°
2026-05-04 00:44 34.46216 -14.48655 36164 ft 489 kts 40°
2026-05-04 00:44 34.51106 -14.42890 36169 ft 489 kts 40°
2026-05-04 00:45 34.55992 -14.37144 36176 ft 489 kts 39°
2026-05-04 00:45 34.60871 -14.31398 36179 ft 489 kts 40°
2026-05-04 00:46 34.65704 -14.25674 36177 ft 489 kts 40°
2026-05-04 00:46 34.70574 -14.19903 36174 ft 489 kts 40°
2026-05-04 00:47 34.75451 -14.14123 36174 ft 489 kts 40°
2026-05-04 00:47 34.80320 -14.08350 36175 ft 489 kts 40°
2026-05-04 00:48 34.85171 -14.02573 36175 ft 489 kts 40°
2026-05-04 00:48 34.90042 -13.96758 36173 ft 489 kts 40°
2026-05-04 00:49 34.94087 -13.91928 36176 ft 489 kts 40°
2026-05-04 00:49 34.98965 -13.86109 36180 ft 490 kts 40°
2026-05-04 00:50 35.03828 -13.80270 36170 ft 490 kts 40°
2026-05-04 00:50 35.07879 -13.75395 36167 ft 490 kts 40°
2026-05-04 00:51 35.13528 -13.68595 36163 ft 491 kts 40°
2026-05-04 00:51 35.18401 -13.62730 36166 ft 491 kts 40°
2026-05-04 00:52 35.23280 -13.56855 36167 ft 491 kts 40°
2026-05-04 00:52 35.28119 -13.51009 36170 ft 492 kts 40°
2026-05-04 00:53 35.32996 -13.45104 36167 ft 492 kts 40°
2026-05-04 00:53 35.37862 -13.39183 36169 ft 493 kts 40°
2026-05-04 00:54 35.42707 -13.33282 36165 ft 493 kts 40°
2026-05-04 00:54 35.47588 -13.27339 36171 ft 494 kts 40°
2026-05-04 00:55 35.52471 -13.21379 36164 ft 494 kts 40°
2026-05-04 00:55 35.57331 -13.15456 36164 ft 494 kts 40°
2026-05-04 00:56 35.62225 -13.09485 36162 ft 495 kts 40°
2026-05-04 00:56 35.67072 -13.03527 36161 ft 495 kts 40°
2026-05-04 00:57 35.71954 -12.97511 36165 ft 496 kts 40°
2026-05-04 00:57 35.76838 -12.91500 36164 ft 496 kts 40°
2026-05-04 00:58 35.81701 -12.85520 36161 ft 496 kts 40°
2026-05-04 00:58 35.86593 -12.79478 36162 ft 497 kts 40°
2026-05-04 00:59 35.91323 -12.73601 36165 ft 497 kts 40°
2026-05-04 00:59 35.96201 -12.67545 36167 ft 497 kts 40°
2026-05-04 01:00 36.01065 -12.61508 36162 ft 498 kts 40°
2026-05-04 01:00 36.05947 -12.55428 36162 ft 498 kts 40°
2026-05-04 01:01 36.10967 -12.49511 36163 ft 496 kts 37°
2026-05-04 01:01 36.16093 -12.43806 36158 ft 496 kts 36°
2026-05-04 01:02 36.21183 -12.38083 36153 ft 497 kts 37°
2026-05-04 01:02 36.26264 -12.32244 36156 ft 498 kts 38°
2026-05-04 01:03 36.31353 -12.26370 36161 ft 498 kts 38°
2026-05-04 01:03 36.36403 -12.20546 36164 ft 498 kts 38°
2026-05-04 01:04 36.41494 -12.14654 36167 ft 499 kts 38°
2026-05-04 01:04 36.46547 -12.08810 36158 ft 499 kts 38°
2026-05-04 01:05 36.51626 -12.02928 36156 ft 499 kts 38°
2026-05-04 01:05 36.56708 -11.97035 36168 ft 499 kts 38°
2026-05-04 01:06 36.61782 -11.91124 36160 ft 499 kts 38°
2026-05-04 01:06 36.66826 -11.85243 36162 ft 499 kts 38°
2026-05-04 01:07 36.71902 -11.79322 36169 ft 499 kts 38°
2026-05-04 01:07 36.76971 -11.73387 36164 ft 499 kts 38°
2026-05-04 01:08 36.82030 -11.67449 36161 ft 499 kts 38°
2026-05-04 01:08 36.87095 -11.61515 36158 ft 499 kts 38°
2026-05-04 01:09 36.92135 -11.55598 36156 ft 499 kts 38°
2026-05-04 01:09 36.97197 -11.49631 36156 ft 499 kts 38°
2026-05-04 01:10 37.02245 -11.43654 36154 ft 499 kts 38°
2026-05-04 01:10 37.07296 -11.37677 36151 ft 499 kts 38°
2026-05-04 01:11 37.12310 -11.31733 36153 ft 499 kts 38°
2026-05-04 01:11 37.17358 -11.25738 36151 ft 499 kts 38°
2026-05-04 01:12 37.22404 -11.19738 36161 ft 499 kts 38°
2026-05-04 01:12 37.27438 -11.13728 36150 ft 499 kts 38°
2026-05-04 01:13 37.32440 -11.07744 36151 ft 499 kts 38°
2026-05-04 01:13 37.37471 -11.01726 36149 ft 499 kts 38°
2026-05-04 01:14 37.42489 -10.95709 36146 ft 499 kts 38°
2026-05-04 01:14 37.47548 -10.89640 35683 ft 508 kts 38°
2026-05-04 01:14 37.50113 -10.86573 34463 ft 520 kts 38°
2026-05-04 01:15 37.52720 -10.83435 33923 ft 513 kts 39°
2026-05-04 01:15 37.55295 -10.80316 32987 ft 513 kts 39°
2026-05-04 01:15 37.57868 -10.77196 32204 ft 511 kts 39°
2026-05-04 01:15 37.60420 -10.74098 31563 ft 506 kts 39°
2026-05-04 01:16 37.62948 -10.71027 30899 ft 502 kts 39°
2026-05-04 01:16 37.65457 -10.67983 30247 ft 499 kts 39°
2026-05-04 01:16 37.67918 -10.64999 29603 ft 493 kts 39°
2026-05-04 01:16 37.70383 -10.62016 28923 ft 488 kts 39°
2026-05-04 01:17 37.72818 -10.59066 28347 ft 482 kts 39°
2026-05-04 01:17 37.75234 -10.56131 27752 ft 477 kts 39°
2026-05-04 01:17 37.77620 -10.53230 27108 ft 474 kts 39°
2026-05-04 01:17 37.79982 -10.50357 26553 ft 468 kts 39°
2026-05-04 01:18 37.82324 -10.47503 26033 ft 463 kts 39°
2026-05-04 01:18 37.84602 -10.44717 25435 ft 460 kts 39°
2026-05-04 01:18 37.86882 -10.41907 25098 ft 451 kts 40°
2026-05-04 01:18 37.88920 -10.38953 24938 ft 442 kts 47°
2026-05-04 01:19 37.90812 -10.35907 24521 ft 437 kts 47°
2026-05-04 01:19 37.92690 -10.32884 24071 ft 434 kts 47°
2026-05-04 01:19 37.94550 -10.29888 23622 ft 431 kts 47°
2026-05-04 01:19 37.96379 -10.26934 23112 ft 428 kts 48°
2026-05-04 01:20 37.98207 -10.23974 22620 ft 425 kts 48°
2026-05-04 01:20 38.00023 -10.21035 22139 ft 421 kts 48°
2026-05-04 01:20 38.01826 -10.18113 21671 ft 418 kts 48°
2026-05-04 01:20 38.03617 -10.15212 21212 ft 415 kts 48°
2026-05-04 01:21 38.05389 -10.12334 20752 ft 412 kts 48°
2026-05-04 01:21 38.07125 -10.09501 20304 ft 409 kts 49°
2026-05-04 01:21 38.08872 -10.06650 19855 ft 407 kts 49°
2026-05-04 01:21 38.10765 -10.03976 19012 ft 409 kts 36°
2026-05-04 01:22 38.13066 -10.01764 18100 ft 418 kts 34°
2026-05-04 01:22 38.15100 -9.99147 17897 ft 412 kts 49°
2026-05-04 01:22 38.16676 -9.96214 17606 ft 406 kts 56°
2026-05-04 01:22 38.18085 -9.93149 17376 ft 396 kts 58°
2026-05-04 01:23 38.19483 -9.90135 16845 ft 395 kts 56°
2026-05-04 01:23 38.20971 -9.87210 16317 ft 393 kts 53°
2026-05-04 01:23 38.22559 -9.84373 15798 ft 392 kts 51°
2026-05-04 01:23 38.24209 -9.81622 15272 ft 391 kts 49°
2026-05-04 01:24 38.25895 -9.78911 14746 ft 389 kts 49°
2026-05-04 01:24 38.27572 -9.76239 14225 ft 388 kts 49°
2026-05-04 01:24 38.29252 -9.73544 13676 ft 387 kts 50°
2026-05-04 01:24 38.30904 -9.70855 13140 ft 384 kts 50°
2026-05-04 01:25 38.32510 -9.68215 12637 ft 380 kts 50°
2026-05-04 01:25 38.34114 -9.65561 12127 ft 376 kts 50°
2026-05-04 01:25 38.35695 -9.62937 11625 ft 372 kts 51°
2026-05-04 01:25 38.37264 -9.60329 11128 ft 368 kts 51°
2026-05-04 01:26 38.38813 -9.57758 10635 ft 363 kts 51°
2026-05-04 01:26 38.40320 -9.55254 10246 ft 345 kts 51°
2026-05-04 01:26 38.41713 -9.52930 10241 ft 314 kts 51°
2026-05-04 01:26 38.42978 -9.50817 10168 ft 298 kts 50°
2026-05-04 01:27 38.44249 -9.48705 9377 ft 300 kts 50°
2026-05-04 01:27 38.45524 -9.46591 8571 ft 301 kts 50°
2026-05-04 01:27 38.46784 -9.44494 8076 ft 290 kts 50°
2026-05-04 01:27 38.47987 -9.42483 7689 ft 278 kts 50°
2026-05-04 01:28 38.49147 -9.40546 7318 ft 273 kts 50°
2026-05-04 01:28 38.50270 -9.38674 6959 ft 270 kts 50°
2026-05-04 01:28 38.51173 -9.37172 6683 ft 270 kts 50°
2026-05-04 01:28 38.52299 -9.35297 6297 ft 268 kts 50°
2026-05-04 01:29 38.53432 -9.33405 5869 ft 267 kts 50°
2026-05-04 01:29 38.54551 -9.31532 5504 ft 264 kts 50°
2026-05-04 01:29 38.55656 -9.29681 5140 ft 256 kts 50°
2026-05-04 01:29 38.56711 -9.27914 4805 ft 243 kts 50°
2026-05-04 01:30 38.57717 -9.26228 4486 ft 238 kts 50°
2026-05-04 01:30 38.58727 -9.24559 4168 ft 235 kts 45°
2026-05-04 01:30 38.59948 -9.23310 3906 ft 218 kts 23°
2026-05-04 01:30 38.61280 -9.22578 3640 ft 206 kts 19°
2026-05-04 01:31 38.62574 -9.21891 3409 ft 194 kts 19°
2026-05-04 01:31 38.63803 -9.21238 3118 ft 189 kts 19°
2026-05-04 01:31 38.64995 -9.20603 2855 ft 179 kts 19°
2026-05-04 01:31 38.66098 -9.20014 2642 ft 162 kts 19°
2026-05-04 01:32 38.67080 -9.19490 2423 ft 145 kts 19°
2026-05-04 01:32 38.67986 -9.19008 2235 ft 138 kts 19°
2026-05-04 01:32 38.68844 -9.18552 2052 ft 134 kts 18°
2026-05-04 01:32 38.69699 -9.18097 1873 ft 132 kts 18°
2026-05-04 01:33 38.70552 -9.17642 1695 ft 133 kts 19°
2026-05-04 01:33 38.71401 -9.17190 1504 ft 133 kts 19°
2026-05-04 01:33 38.71972 -9.16885 1389 ft 134 kts 19°
2026-05-04 01:33 38.73087 -9.16289 1125 ft 135 kts 19°
2026-05-04 01:34 38.73951 -9.15805 947 ft 136 kts 22°
2026-05-04 01:34 38.74835 -9.15342 749 ft 138 kts 19°
2026-05-04 01:34 38.75722 -9.14863 552 ft 138 kts 19°
2026-05-04 01:34 38.76579 -9.14412 394 ft 138 kts 20°
2026-05-04 01:35 38.77415 -9.13975 362 ft 110 kts 22°
2026-05-04 01:35 38.77964 -9.13684 366 ft 61 kts 22°
2026-05-04 01:35 38.78199 -9.13558 366 ft 26 kts 21°
2026-05-04 01:35 38.78236 -9.13479 365 ft 7 kts 112°
2026-05-04 01:36 38.78159 -9.13455 365 ft 19 kts 169°
2026-05-04 01:36 38.78024 -9.13423 360 ft 21 kts 159°
2026-05-04 01:36 38.77920 -9.13392 354 ft 25 kts 166°
2026-05-04 01:36 38.77748 -9.13343 342 ft 26 kts 167°
2026-05-04 01:37 38.77605 -9.13322 338 ft 17 kts 177°
2026-05-04 01:37 38.77485 -9.13295 334 ft 17 kts 169°
2026-05-04 01:37 38.77355 -9.13264 338 ft 12 kts 170°
2026-05-04 01:37 38.77302 -9.13253 338 ft 11 kts 170°
2026-05-04 01:38 38.77230 -9.13234 334 ft 10 kts 168°
2026-05-04 01:38 38.77194 -9.13211 335 ft 4 kts 111°
2026-05-04 01:38 38.77201 -9.13173 335 ft 5 kts 77°
2026-05-04 01:38 38.77205 -9.13146 336 ft 1 kts 78°
2026-05-04 01:39 38.77206 -9.13138 333 ft 1 kts 78°
2026-05-04 01:39 38.77206 -9.13137 333 ft 0 kts 78°